Location: Newark
(46.7636°N, 1.8358°W)
Time: 13:14:17
(UTC+00:00)

Tiros 1 - All Passes

Search period start: 18 October 2019 00:00
Search period end: 28 October 2019 00:00
Orbit: 630 x 664 km, 48.4° (Epoch: 17 October)

Date Brightness Start Highest point End Pass type
(mag) Time Alt. Az. Time Alt. Az. Time Alt. Az.
18 Oct - 02:30:36 10° SW 02:35:02 38° SSE 02:39:29 10° E visible
18 Oct - 04:12:12 10° WSW 04:17:02 86° NNW 04:21:52 10° ENE visible
18 Oct - 05:54:37 10° W 05:59:27 75° N 06:04:17 10° E visible
18 Oct - 07:36:56 10° WNW 07:41:41 58° SSW 07:46:23 10° SE daylight
18 Oct - 09:20:08 10° W 09:23:13 17° SW 09:26:16 10° S daylight
19 Oct - 01:15:55 10° S 01:19:19 20° SE 01:22:45 10° E night (unlit)
19 Oct - 02:56:11 10° WSW 03:00:55 64° SSE 03:05:42 10° ENE visible
19 Oct - 04:38:23 10° W 04:43:12 73° N 04:48:02 10° E visible
19 Oct - 06:20:46 10° WNW 06:25:37 89° SSW 06:30:26 10° ESE daylight
19 Oct - 08:03:12 10° W 08:07:33 34° SW 08:11:51 10° SSE daylight
20 Oct - 01:40:40 10° SSW 01:45:01 36° SE 01:49:25 10° E visible
20 Oct - 03:22:10 10° WSW 03:26:59 89° NNW 03:31:50 10° ENE visible
20 Oct - 05:04:34 10° W 05:09:24 74° N 05:14:14 10° E visible
20 Oct - 06:46:53 10° WNW 06:51:40 61° SSW 06:56:23 10° SE daylight
20 Oct - 08:29:57 10° W 08:33:14 18° SW 08:36:29 10° S daylight
21 Oct - 00:26:07 10° S 00:29:20 18° SE 00:32:35 10° E night (unlit)
21 Oct - 02:06:12 10° SW 02:10:54 61° SSE 02:15:39 10° ENE visible
21 Oct - 03:48:20 10° W 03:53:09 74° N 03:57:59 10° E visible
21 Oct - 05:30:44 10° WNW 05:35:34 89° NNE 05:40:24 10° ESE visible
21 Oct - 07:13:08 10° W 07:17:32 36° SW 07:21:55 10° SSE daylight
22 Oct - 00:50:44 10° SSW 00:55:01 34° SE 00:59:20 10° E night (unlit)
22 Oct - 02:32:08 10° WSW 02:36:57 89° SSE 02:41:47 10° ENE visible
22 Oct - 04:14:32 10° W 04:19:21 73° N 04:24:11 10° E visible
22 Oct - 05:56:51 10° WNW 06:01:38 65° SSW 06:06:24 10° ESE visible
22 Oct - 07:39:48 10° W 07:43:15 20° SW 07:46:40 10° S daylight
22 Oct - 23:36:21 10° S 23:39:22 17° SE 23:42:24 10° E night (unlit)
23 Oct - 01:16:13 10° SW 01:20:53 58° SSE 01:25:37 10° ENE night (unlit)
23 Oct - 02:58:18 10° W 03:03:06 75° N 03:07:56 10° E visible
23 Oct - 04:40:41 10° WNW 04:45:31 86° N 04:50:23 10° ESE visible
23 Oct - 06:23:04 10° W 06:27:33 38° SSW 06:31:59 10° SE daylight
24 Oct - 00:00:49 10° SSW 00:05:01 32° SE 00:09:16 10° E night (unlit)
24 Oct - 01:42:07 10° WSW 01:46:55 87° SSE 01:51:45 10° ENE visible
24 Oct - 03:24:30 10° W 03:29:18 73° N 03:34:08 10° E visible
24 Oct - 05:06:48 10° WNW 05:11:36 68° SSW 05:16:24 10° ESE visible
24 Oct - 06:49:40 10° W 06:53:16 21° SW 06:56:51 10° S daylight
24 Oct - 22:46:37 10° S 22:49:24 16° SE 22:52:11 10° E night (unlit)
25 Oct - 00:26:14 10° SW 00:30:52 55° SSE 00:35:34 10° ENE night (unlit)
25 Oct - 02:08:16 10° W 02:13:03 76° N 02:17:53 10° E visible
25 Oct - 03:50:39 10° WNW 03:55:29 84° NNE 04:00:20 10° ESE visible
25 Oct - 05:33:01 10° W 05:37:32 41° SSW 05:42:01 10° SE visible
25 Oct - 23:10:55 10° SSW 23:15:01 30° SE 23:19:10 10° E night (unlit)
26 Oct - 00:52:06 10° WSW 00:56:52 84° SSE 01:01:42 10° ENE night (unlit)
26 Oct - 02:34:27 10° W 02:39:15 72° N 02:44:05 10° E visible
26 Oct - 04:16:46 10° WNW 04:21:34 71° SSW 04:26:22 10° ESE visible
26 Oct - 05:59:32 10° W 06:03:16 23° SW 06:06:59 10° S visible
26 Oct - 21:56:55 10° SSE 21:59:25 14° SE 22:01:57 10° ESE night (unlit)
26 Oct - 23:36:15 10° SW 23:40:51 52° SSE 23:45:31 10° ENE night (unlit)
27 Oct - 01:18:14 10° W 01:23:01 77° N 01:27:50 10° ENE night (unlit)
27 Oct - 03:00:37 10° WNW 03:05:26 82° NNE 03:10:17 10° E visible
27 Oct - 04:42:57 10° WNW 04:47:31 43° SSW 04:52:03 10° SE visible
27 Oct - 06:27:34 10° WSW 06:28:49 11° SW 06:30:04 10° SSW daylight
27 Oct - 22:21:02 10° SSW 22:25:02 28° SE 22:29:05 10° E night (unlit)
